+ View the NASA Portal
+ Center for Near-Earth Object Studies
IMPORTANT:
The SSD Announcement email list is now available. Major changes are coming in the near future, including possible hostname and/or URL changes. To be notified of such changes, subscribe to this email list.
Please visit
this page
for more details.
Don't show this message again
JPL Small-Body Database Browser
Search:
[
help
]
344850 (2004 GV45)
Classification:
Main-belt Asteroid
SPK-ID:
2344850
[
Ephemeris
|
Orbit Diagram
|
Orbital Elements
|
Mission Design
|
Physical Parameters
|
Discovery Circumstances
]
[ show orbit diagram ]
Orbital Elements at Epoch 2458600.5 (2019-Apr-27.0) TDB
Reference:
JPL 11
(heliocentric ecliptic J2000)
Element
Value
Uncertainty (1-sigma)
Units
e
.2012934688643871
4.9763e-08
a
2.29310475442086
1.748e-08
au
q
1.831517743934066
1.1725e-07
au
i
4.581497875756323
6.6482e-06
deg
node
38.7930781537837
7.044e-05
deg
peri
264.1785726567273
7.3731e-05
deg
M
42.24159859636645
1.8482e-05
deg
t
p
2458451.676294518990
(2018-Nov-29.17629452)
6.4595e-05
TDB
period
1268.335852653362
3.47
1.4503e-05
3.971e-08
d
yr
n
.2838364927135656
3.2455e-09
deg/d
Q
2.754691764907653
2.0999e-08
au
Orbit Determination Parameters
# obs. used (total)
132
data-arc span
6686 days (18.31 yr)
first obs. used
2001-07-18
last obs. used
2019-11-07
planetary ephem.
DE431
SB-pert. ephem.
SB431-N16
condition code
0
norm. resid. RMS
.67614
source
ORB
producer
Otto Matic
solution date
2019-Dec-04 22:57:23
Additional Information
Earth MOID
= .822573 au
Jupiter MOID
= 2.48988 au
T_jup
= 3.566
[ show covariance matrix ]
[
Ephemeris
|
Orbit Diagram
|
Orbital Elements
|
Mission Design
|
Physical Parameters
|
Discovery Circumstances
]
Physical Parameter Table
Parameter
Symbol
Value
Units
Sigma
Reference
Notes
absolute magnitude
H
17.7
n/a
MPO450304
344850 (2004 GV45)
Discovered 2004-Apr-12 by Spacewatch at Kitt Peak
Reference:
20121128/Numbers.arc
Last Updated:
2012-12-03
Alternate Designations
2004 GV45
= 2005 UJ308
[
Ephemeris
|
Orbit Diagram
|
Orbital Elements
|
Mission Design
|
Physical Parameters
|
Discovery Circumstances
]
2019-Dec-05 22:36 UT
(server date/time)
Site Manager:
Ryan S. Park
Webmaster
:
Alan B. Chamberlin